This demonstration page uses our WeatherBlox Daily Observations layout. Learn more.

Left ArrowRight Arrow

38.20091, -84.87328

Hourly Observations for February 21, 2020

Temp ( °F °C ) Dew Point ( °F °C ) Humidity (%) Winds ( mph kmh ) Pressure ( in mb ) Visibility ( mi km ) Precip ( " mm )
12:53 am 00:53 Clear 23 -5 9 -12.8 55 55 N 7 11 30.62 1037 10 16 0.00 0.00
1:53 am 01:53 Clear 22 -5.6 9 -12.8 57 57 N 3 6 30.62 1037 10 16 0.00 0.00
2:53 am 02:53 Clear 20 -6.7 10 -12.2 65 65 NNW 3 6 30.62 1037 10 16 0.00 0.00
3:53 am 03:53 Clear 18 -7.8 9 -12.8 68 68 Calm 30.61 1037 10 16 0.00 0.00
4:53 am 04:53 Clear 16 -8.9 10 -12.2 77 77 Calm 30.61 1037 10 16 0.00 0.00
5:53 am 05:53 Clear 15 -9.4 10 -12.2 80 80 Calm 30.63 1037 10 16 0.00 0.00
6:53 am 06:53 Clear 15 -9.4 10 -12.2 80 80 Calm 30.65 1038 10 16 0.00 0.00
7:53 am 07:53 Sunny 16 -8.9 10 -12.2 77 77 NNW 3 6 30.66 1038 10 16 0.00 0.00
8:53 am 08:53 Sunny 22 -5.6 13 -10.6 68 68 N 3 6 30.68 1039 10 16 0.00 0.00
9:53 am 09:53 Sunny 26 -3.3 13 -10.6 57 57 NE 5 7 30.69 1039 10 16 0.00 0.00
10:53 am 10:53 Sunny 29 -1.7 11 -11.7 47 47 ENE 6 9 30.69 1039 10 16 0.00 0.00
11:53 am 11:53 Sunny 30 -1.1 12 -11.1 47 47 S 5 7 30.68 1039 10 16 0.00 0.00
12:53 pm 12:53 Sunny 33 0.6 11 -11.7 40 40 SE 6 9 30.66 1038 10 16 0.00 0.00
1:53 pm 13:53 Sunny 35 1.7 12 -11.1 38 38 VRB 5 7 30.62 1037 10 16 0.00 0.00
2:53 pm 14:53 Sunny 37 2.8 13 -10.6 37 37 S 8 13 30.59 1036 10 16 0.00 0.00
3:53 pm 15:53 Sunny 38 3.3 11 -11.7 33 33 SW 5 7 30.57 1035 10 16 0.00 0.00
4:53 pm 16:53 Sunny 39 3.9 8 -13.3 28 28 VRB 3 6 30.56 1035 10 16 0.00 0.00
5:53 pm 17:53 Sunny 37 2.8 11 -11.7 34 34 W 3 6 30.57 1035 10 16 0.00 0.00
6:53 pm 18:53 Clear 32 0 11 -11.7 41 41 W 3 6 30.56 1035 10 16 0.00 0.00
7:53 pm 19:53 Clear 27 -2.8 12 -11.1 53 53 Calm 30.55 1035 10 16 0.00 0.00
8:53 pm 20:53 Clear 26 -3.3 13 -10.6 57 57 Calm 30.54 1034 10 16 0.00 0.00
9:53 pm 21:53 Clear 23 -5 13 -10.6 65 65 Calm 30.54 1034 10 16 0.00 0.00
10:53 pm 22:53 Clear 22 -5.6 13 -10.6 68 68 Calm 30.52 1034 10 16 0.00 0.00
11:53 pm 23:53 Clear 21 -6.1 13 -10.6 71 71 SW 3 6 30.50 1033 10 16 0.00 0.00

Powered by AerisWeather